Weather History for De Queen, AR

Change the Weather History Date:

Monday, February 3, 2014

  Actual Average Record
Temperature  
Mean Temperature 38 °F 42 °F  
Max Temperature 49 °F 55 °F 79 °F (1995)
Min Temperature 26 °F 30 °F 2 °F (1951)
Degree Days  
Heating Degree Days 27 23  
Month to date heating degree days 66 69  
Since 1 July heating degree days 2207 2005  
Cooling Degree Days 0 0  
Month to date cooling degree days 0 0  
Year to date cooling degree days 0 1  
Moisture  
Dew Point 27 °F    
Average Humidity 68    
Maximum Humidity 100    
Minimum Humidity 36    
Precipitation  
Precipitation 0.00 in 0.16 in 1.77 in (1989)
Month to date precipitation 0.34 0.48  
Year to date precipitation 1.26 3.80  
Snow  
Snow 0.00 in - - ()
Month to date snowfall 0.0  
Since 1 July snowfall 0.1  
Snow Depth 0.00 in    
Sea Level Pressure  
Sea Level Pressure 30.22 in    
Wind  
Wind Speed 6 mph (East)    
Max Wind Speed 16 mph    
Max Gust Speed 22 mph    
Visibility 6 miles    
Events Fog    
T = Trace of Precipitation, MM = Missing Value Source: NWS Daily Summary

Daily Weather History Graph

Daily Weather History Graph

Search for Another Location

Airport:

Trip Planner

Search our weather history database for the weather conditions in past years. The results will help you decide how hot, cold, wet, or windy it might be!

Date:

Astronomy

Feb. 03, 2014 Rise Set
Actual Time 7:13 AM CST 5:50 PM CST
Civil Twilight 6:47 AM CST 6:16 PM CST
Nautical Twilight 6:17 AM CST 6:46 PM CST
Astronomical Twilight 5:47 AM CST 7:15 PM CST
Moon 9:29 AM CST (2/3) 10:25 PM CST (2/3)
Length of Visible Light 11h 29m
Length of Day
10h 36m
Waxing Crescent, 20% of the Moon is Illuminated
Feb 3
Waxing Crescent
Feb 6
First Quarter
Feb 14
Full
Feb 22
Last Quarter
Mar 1
New

Hourly Weather History & Observations

Time (CST) Temp. Windchill Dew Point Humidity Pressure Visibility Wind Dir Wind Speed Gust Speed Precip Events Conditions
12:53 AM 34.0 °F 31.0 °F 30.0 °F 85% 30.22 in 9.0 mi NNE 3.5 mph - N/A   Mostly Cloudy
1:53 AM 30.9 °F - 28.9 °F 92% 30.22 in 6.0 mi Calm Calm - N/A   Mostly Cloudy
2:53 AM 30.0 °F - 28.9 °F 96% 30.23 in 5.0 mi Calm Calm - N/A   Clear
3:15 AM 30.0 °F - 28.9 °F 96% 30.23 in 2.5 mi Calm Calm - N/A   Clear
3:46 AM 30.0 °F - 28.9 °F 96% 30.24 in 3.0 mi Calm Calm - N/A   Clear
3:53 AM 28.9 °F - 28.9 °F 100% 30.25 in 3.0 mi Calm Calm - N/A   Clear
4:29 AM 28.9 °F - 28.0 °F 96% 30.25 in 1.8 mi Calm Calm - N/A   Clear
4:39 AM 28.9 °F - 28.0 °F 96% 30.26 in 1.0 mi Calm Calm - N/A   Mist
4:46 AM 28.0 °F - 28.0 °F 100% 30.25 in 0.5 mi Calm Calm - N/A Fog Light Freezing Fog
4:53 AM 28.0 °F - 28.0 °F 100% 30.26 in 1.0 mi Calm Calm - N/A   Mostly Cloudy
5:06 AM 28.0 °F - 28.0 °F 100% 30.25 in 0.2 mi Calm Calm - N/A Fog Light Freezing Fog
5:53 AM 27.0 °F - 27.0 °F 100% 30.26 in 0.2 mi Calm Calm - N/A Fog Light Freezing Fog
6:10 AM 27.0 °F - 27.0 °F 100% 30.25 in 1.0 mi Calm Calm - N/A   Mist
6:17 AM 27.0 °F - 27.0 °F 100% 30.25 in 1.8 mi Calm Calm - N/A   Partly Cloudy
6:36 AM 26.1 °F - 25.0 °F 96% 30.26 in 2.0 mi Calm Calm - N/A   Clear
6:43 AM 26.1 °F - 25.0 °F 96% 30.26 in 1.0 mi Calm Calm - N/A   Clear
6:50 AM 26.6 °F - 24.8 °F 93% 30.26 in 0.5 mi Calm Calm - N/A Fog Light Freezing Fog
6:53 AM 27.0 °F - 25.0 °F 92% 30.26 in 0.5 mi Calm Calm - N/A Fog Light Freezing Fog
7:13 AM 26.1 °F - 25.0 °F 96% 30.25 in 1.2 mi Calm Calm - N/A   Clear
7:33 AM 27.0 °F - 26.1 °F 96% 30.26 in 2.0 mi Calm Calm - N/A   Clear
7:53 AM 28.0 °F - 28.0 °F 100% 30.27 in 2.5 mi Calm Calm - N/A   Clear
8:03 AM 28.9 °F - 28.9 °F 100% 30.27 in 3.0 mi Calm Calm - N/A   Clear
8:53 AM 32.0 °F 28.7 °F 28.9 °F 88% 30.27 in 9.0 mi East 3.5 mph - N/A   Clear
9:53 AM 36.0 °F 30.3 °F 28.0 °F 73% 30.28 in 10.0 mi ESE 6.9 mph - N/A   Clear
10:53 AM 39.0 °F 34.0 °F 28.0 °F 65% 30.28 in 10.0 mi East 6.9 mph - N/A   Clear
11:53 AM 42.1 °F 39.2 °F 26.1 °F 53% 30.26 in 10.0 mi ESE 4.6 mph - N/A   Clear
12:53 PM 44.1 °F 41.5 °F 25.0 °F 47% 30.23 in 10.0 mi East 4.6 mph - N/A   Clear
1:53 PM 46.9 °F - 24.1 °F 41% 30.19 in 10.0 mi ESE 9.2 mph - N/A   Clear
2:53 PM 48.0 °F - 23.0 °F 37% 30.18 in 10.0 mi ESE 10.4 mph - N/A   Clear
3:53 PM 48.9 °F - 25.0 °F 39% 30.15 in 10.0 mi East 10.4 mph - N/A   Clear
4:53 PM 46.9 °F - 25.0 °F 42% 30.15 in 10.0 mi East 10.4 mph - N/A   Clear
5:53 PM 43.0 °F 39.5 °F 27.0 °F 53% 30.13 in 10.0 mi East 5.8 mph - N/A   Clear
6:53 PM 42.1 °F 38.4 °F 26.1 °F 53% 30.14 in 10.0 mi ENE 5.8 mph - N/A   Clear
7:53 PM 39.9 °F 34.5 °F 26.1 °F 58% 30.13 in 10.0 mi East 8.1 mph - N/A   Clear
8:53 PM 39.0 °F 31.8 °F 28.0 °F 65% 30.12 in 10.0 mi East 11.5 mph 20.7 mph N/A   Clear
9:53 PM 37.0 °F 28.9 °F 28.9 °F 73% 30.10 in 10.0 mi East 12.7 mph - N/A   Clear
10:53 PM 36.0 °F 26.7 °F 27.0 °F 70% 30.09 in 10.0 mi East 15.0 mph - N/A   Clear
11:53 PM 35.1 °F 26.9 °F 27.0 °F 72% 30.06 in 10.0 mi East 11.5 mph 17.3 mph N/A   Clear